Wind_Speed
10 7 7 7 10 9 9 8 2 9 5 3 6 4 7 7 6 8 8 10 13 16 19 14 14 20 20 19 17 5 2 11 22 21 16 18 32 23 24 17 17 17 15 3
11 9 6 7 10 7 7 5 4 6 2 0 1 5 6 7 6 5 8 8 13 17 14 8 12 15 16 19 17 6 6 3 5 7 8 11 21 24 21 19 13 10 11 11
12 11 6 6 9 6 4 3 2 5 3 1 2 6 5 7 7 4 8 7 10 14 12 13 8 16 16 16 14 3 6 8 6 5 4 13 17 20 21 18 15 16 16 13
15 12 8 7 9 6 3 2 2 2 3 2 3 4 6 7 8 7 8 5 11 15 15 16 12 18 16 13 10 10 8 7 7 5 10 2 6 13 14 17 17 14 8 10
18 13 11 10 9 7 5 3 0 3 2 3 2 5 4 7 7 10 9 12 15 17 16 17 23 20 15 11 10 14 9 6 10 9 7 6 7 8 10 13 14 15 16 12
20 15 14 13 10 8 6 6 4 2 4 2 3 5 6 7 11 8 7 14 19 17 16 21 22 24 24 22 17 15 8 9 8 3 2 4 10 14 15 13 13 13 17 9
22 17 18 14 12 9 7 8 7 5 3 4 4 8 9 10 11 15 16 15 15 15 17 19 20 17 16 14 12 11 9 9 6 7 2 5 2 2 8 11 8 5 5 4
21 22 20 16 15 12 10 10 8 7 4 5 7 8 8 9 11 13 13 11 13 15 16 19 14 7 5 4 9 10 11 4 6 5 7 7 4 1 3 5 10 10 8 6
25 24 22 19 15 15 12 11 8 9 6 2 8 7 8 9 9 9 7 12 10 12 13 10 9 8 6 1 4 5 9 9 9 6 5 2 10 2 13 7 4 3 10 7
26 24 22 20 18 17 12 10 8 9 8 7 7 7 8 7 8 9 10 11 9 8 10 10 10 7 7 5 5 2 1 5 12 12 9 2 11 10 5 5 3 6 7 4
26 24 23 22 20 19 16 10 10 8 9 9 10 3 9 11 10 10 14 11 5 7 6 7 8 8 7 6 5 3 5 5 3 5 6 3 8 7 4 7 3 4 3 3
27 26 25 23 21 20 18 13 14 7 16 12 12 12 12 14 17 18 16 11 11 5 5 5 7 9 8 12 6 7 2 8 8 6 9 12 13 10 6 7 6 5 5 5
27 26 26 24 23 20 20 14 10 16 16 15 13 7 10 13 16 12 13 10 7 6 10 9 8 6 11 9 8 9 10 12 7 11 9 11 11 10 7 9 8 6 6 6
26 26 26 25 23 21 22 18 17 17 16 18 11 15 6 11 13 14 18 14 14 10 10 10 10 10 6 12 13 13 13 11 15 14 10 11 11 10 9 8 5 7 9 7
23 24 24 24 23 21 22 19 17 19 15 11 6 11 19 17 12 13 14 16 12 12 12 14 12 9 12 12 10 8 11 11 15 11 14 13 13 11 8 9 10 9 10 9
21 22 24 25 23 21 17 20 16 19 16 19 14 10 15 15 11 11 15 16 18 15 14 13 15 11 7 8 8 11 13 15 16 15 11 6 7 8 9 8 7 7 9 8
20 22 24 24 24 22 23 15 11 14 15 19 14 7 14 8 13 14 14 16 18 14 15 16 13 10 13 13 13 16 17 12 13 12 8 5 4 5 6 6 6 7 8 9
20 22 23 23 25 26 23 23 9 10 14 19 9 8 11 9 8 11 12 14 13 16 16 16 15 13 13 9 15 15 13 12 13 8 9 8 8 8 8 6 4 3 4 6
21 22 23 24 25 24 21 14 14 13 17 9 11 10 5 5 8 7 10 11 14 14 16 13 10 10 9 15 13 11 15 17 16 13 12 12 9 8 6 6 6 7 8 10
22 23 23 22 25 21 23 15 19 17 21 21 23 14 9 7 7 9 9 7 9 7 13 10 16 17 21 22 23 25 24 23 21 18 16 15 12 9 10 13 13 14 14 13
27 32 27 14 18 26 18 14 16 15 13 21 23 19 14 12 12 7 6 4 4 5 7 10 6 13 22 21 23 23 22 20 20 21 20 17 17 18 16 15 15 14 15 15
35 29 17 30 24 13 11 13 12 10 13 11 11 14 19 17 15 10 5 7 6 6 8 6 5 18 20 20 19 18 18 17 17 17 17 17 17 17 16 16 16 16 15 15
34 20 24 17 14 13 14 15 14 19 13 12 14 12 10 16 14 10 6 6 8 6 6 5 11 14 15 15 14 12 12 15 15 14 16 18 18 18 17 18 18 18 18 18
20 14 13 11 10 12 12 17 17 22 17 13 8 8 9 11 11 9 6 8 5 4 5 8 15 14 15 15 15 15 14 14 14 14 14 16 18 19 20 20 19 18 18 17
14 8 6 16 14 15 17 13 10 14 19 16 14 10 11 10 8 7 7 4 4 5 8 12 10 11 12 13 14 14 14 14 14 15 15 15 16 16 16 16 16 16 16 15
20 11 13 12 19 14 14 16 11 15 21 18 13 10 5 7 6 5 6 3 4 6 6 7 9 9 9 8 10 11 12 12 12 12 12 12 12 12 11 11 11 11 11 12
13 14 18 14 20 19 14 16 16 17 20 18 10 8 8 5 5 5 6 8 9 9 8 8 9 9 10 11 11 10 10 10 10 11 10 10 10 9 9 9 8 8 8 8
Wind_Direction
238 257 276 305 311 330 354 5 310 332 330 3 354 329 315 320 335 355 352 338 345 341 345 346 0 1 4 7 8 328 278 242 190 199 193 218 213 212 212 217 218 238 277 180
239 250 271 300 302 322 357 21 326 348 318 66 352 312 336 322 343 352 359 346 353 347 340 352 353 3 354 354 349 340 322 246 185 187 157 174 193 210 211 216 260 234 222 239
241 248 260 280 288 308 340 352 8 347 36 351 140 305 306 339 325 347 341 326 350 353 343 341 358 0 348 345 350 1 249 309 311 337 331 192 205 201 207 212 226 237 240 164
240 242 255 262 271 283 297 319 69 17 325 242 279 291 290 321 337 335 344 325 338 342 340 337 343 340 344 340 343 360 341 276 317 326 295 280 199 215 204 219 227 241 253 289
241 241 247 252 257 264 247 238 114 307 294 356 310 279 278 289 302 325 320 324 325 334 330 326 319 323 328 317 325 337 344 313 328 295 257 257 242 232 231 237 242 255 263 270
237 238 242 242 244 243 220 241 230 223 231 303 325 290 262 278 301 309 306 316 317 325 316 308 301 300 294 280 288 299 317 333 336 280 327 267 257 246 239 239 242 247 255 261
233 236 240 239 244 236 216 231 236 235 159 245 278 289 291 294 290 284 292 301 302 306 302 298 308 302 288 271 253 261 281 314 302 296 277 226 192 275 241 227 223 215 242 281
232 235 237 236 241 245 214 223 230 232 244 252 282 295 297 308 310 301 295 295 281 302 317 321 323 307 282 263 251 244 251 275 292 272 267 266 218 358 136 225 217 217 230 246
230 232 233 235 235 243 237 223 234 243 248 244 236 269 302 299 302 304 306 309 297 306 316 317 302 318 332 286 191 196 211 234 255 274 261 270 27 311 236 214 140 193 203 225
229 228 231 233 233 237 236 220 224 239 254 243 269 282 278 289 290 290 304 315 321 314 311 311 305 308 326 324 10 41 214 249 238 245 249 161 3 345 278 249 295 194 234 262
226 225 230 231 230 235 233 216 206 241 260 257 265 303 290 269 274 278 273 319 332 316 305 308 336 319 338 328 355 18 10 311 268 248 236 229 360 329 356 335 297 251 251 292
225 224 225 227 228 231 225 218 219 252 250 253 284 286 281 268 245 253 268 262 280 288 312 320 327 319 329 323 313 7 355 18 351 324 324 302 305 327 326 278 276 266 273 286
225 223 223 222 225 228 221 224 216 245 248 276 285 231 305 288 268 257 269 274 298 264 267 284 299 301 323 331 333 359 336 339 326 327 301 307 308 282 281 265 257 265 287 300
225 224 221 219 219 222 216 222 222 226 254 281 294 289 283 316 292 265 248 239 253 258 268 263 273 288 312 299 303 304 303 329 327 315 301 314 272 241 254 248 261 275 277 274
227 222 217 216 216 219 211 219 230 221 233 251 250 275 299 305 288 254 247 249 262 259 255 255 268 284 290 293 300 269 322 342 344 301 295 287 269 262 240 257 276 273 267 262
227 220 212 211 210 213 202 219 226 223 236 255 276 278 275 288 277 262 254 260 255 257 260 268 268 277 291 309 308 297 310 319 317 316 316 270 265 256 254 259 261 261 254 251
214 212 206 208 208 199 199 200 223 225 232 248 275 286 291 280 257 249 252 258 254 244 255 263 262 273 278 287 277 288 311 320 308 304 299 296 274 282 267 280 274 256 249 248
207 202 198 203 206 201 204 190 187 217 246 224 240 249 273 286 276 257 256 257 247 249 248 259 261 263 249 260 265 292 308 319 319 315 298 292 291 285 278 275 280 301 310 300
199 196 192 198 203 204 187 199 211 223 198 211 231 233 272 286 235 238 259 264 255 248 250 246 253 251 237 248 277 287 299 307 317 316 326 316 304 296 288 292 304 317 306 298
186 185 174 190 206 195 195 207 221 220 212 234 244 249 252 258 249 274 238 245 227 241 254 241 243 246 251 259 269 280 285 288 292 292 297 306 300 300 310 310 311 312 311 308
176 174 179 188 193 191 199 197 196 204 217 241 249 241 235 250 244 253 224 257 237 246 243 211 233 245 260 263 267 273 283 284 280 280 283 288 294 293 304 307 307 306 304 302
176 174 182 164 178 185 192 196 197 205 216 228 222 234 219 229 233 228 260 251 239 242 237 213 236 250 267 272 274 278 283 286 285 282 282 285 288 290 295 299 303 305 302 300
174 185 170 170 175 186 195 193 190 204 200 229 230 216 219 225 225 228 243 245 238 230 212 230 246 263 271 272 276 276 280 287 289 285 283 284 287 290 293 294 297 299 297 293
187 201 181 191 184 199 204 204 221 217 216 216 185 215 199 207 210 208 237 239 257 218 221 236 265 276 276 277 279 284 288 291 293 292 288 286 289 291 293 294 295 295 294 293
194 203 205 204 206 208 213 217 239 216 212 218 217 209 201 203 204 220 226 242 232 224 232 261 286 285 283 282 283 286 292 297 299 297 295 294 292 290 290 290 291 291 290 290
206 212 207 223 205 202 198 206 212 203 202 198 193 191 198 217 212 216 225 237 229 262 284 280 287 292 290 294 294 294 294 297 298 299 301 300 299 298 296 295 292 291 291 292
218 213 202 218 204 208 222 213 208 198 198 189 180 186 201 213 221 225 221 229 263 276 282 287 285 284 289 296 301 304 306 308 308 311 313 313 312 313 314 315 313 309 307 305
Height
3021 3022 3024 3023 3022 3021 3020 3017 3020 3017 3017 3020 3016 3020 3016 3013 3014 3013 3011 3008 3005 3002 2998 2994 2990 2987 2983 2978 2976 2975 2974 2972 2968 2969 2971 2973 2976 2980 2983 2983 2984 2984 2985 2993
3017 3020 3019 3020 3020 3018 3017 3017 3018 3016 3016 3019 3019 3018 3017 3014 3013 3012 3011 3009 3007 3004 2999 2996 2994 2990 2986 2982 2977 2975 2973 2971 2969 2967 2971 2972 2973 2978 2982 2984 2983 2985 2986 2986
3014 3016 3016 3017 3017 3016 3015 3016 3017 3017 3016 3015 3015 3017 3017 3016 3012 3011 3011 3010 3009 3006 3002 2998 2995 2994 2991 2986 2982 2979 2977 2974 2972 2972 2972 2972 2973 2975 2978 2981 2982 2981 2980 2984
3010 3011 3012 3014 3014 3013 3015 3014 3015 3016 3017 3017 3015 3016 3016 3015 3013 3011 3010 3009 3007 3005 3002 2999 2996 2994 2991 2989 2985 2982 2981 2977 2974 2973 2972 2973 2972 2975 2975 2977 2980 2981 2984 2983
3006 3007 3009 3011 3011 3011 3012 3013 3014 3015 3017 3014 3014 3015 3016 3014 3012 3011 3009 3007 3004 3001 2999 2996 2991 2991 2990 2989 2986 2983 2979 2977 2976 2974 2974 2974 2975 2975 2976 2978 2979 2979 2979 2981
3001 3002 3005 3008 3008 3009 3010 3011 3011 3013 3015 3016 3016 3016 3015 3013 3011 3010 3008 3005 3002 3001 2999 2993 2988 2985 2983 2984 2985 2984 2982 2980 2978 2974 2974 2974 2975 2975 2977 2979 2979 2981 2981 2980
2995 2997 3001 3003 3004 3005 3007 3009 3010 3012 3012 3015 3015 3014 3013 3011 3010 3008 3006 3005 3003 3002 2996 2991 2987 2985 2982 2981 2982 2983 2981 2981 2980 2976 2976 2975 2972 2973 2975 2977 2977 2978 2980 2979
2988 2993 2996 2998 3000 3002 3004 3006 3008 3009 3010 3012 3013 3013 3011 3009 3008 3006 3005 3004 3002 2998 2995 2992 2987 2983 2982 2980 2981 2982 2982 2982 2981 2978 2974 2973 2972 2972 2973 2974 2975 2976 2976 2977
2984 2988 2991 2994 2996 2998 3000 3003 3005 3006 3008 3010 3010 3010 3010 3009 3008 3006 3004 3003 2999 2998 2996 2994 2990 2984 2981 2981 2980 2980 2982 2983 2984 2980 2976 2972 2975 2972 2972 2970 2972 2974 2975 2975
2979 2983 2986 2989 2992 2995 2997 3000 3002 3003 3004 3006 3007 3009 3008 3007 3007 3005 3004 3001 2999 2998 2996 2993 2989 2985 2983 2981 2979 2978 2980 2980 2980 2978 2976 2974 2973 2973 2972 2975 2977 2972 2973 2973
2973 2977 2981 2985 2988 2991 2994 2998 2999 3001 3002 3003 3002 3003 3003 3004 3004 3003 3001 3002 2998 2998 2997 2994 2991 2987 2985 2983 2982 2981 2980 2978 2976 2975 2974 2975 2974 2974 2975 2975 2973 2972 2971 2971
2967 2972 2976 2980 2984 2987 2991 2994 2997 2997 2999 3000 3000 2999 2999 2998 2998 2999 2999 3000 2999 2999 2997 2996 2993 2991 2988 2985 2982 2982 2982 2982 2981 2980 2977 2976 2975 2975 2974 2974 2974 2972 2972 2972
2962 2966 2971 2975 2979 2983 2988 2991 2994 2995 2996 2996 2995 2995 2995 2995 2995 2996 2997 2997 2997 2997 2996 2995 2994 2992 2990 2987 2984 2984 2982 2981 2981 2980 2976 2975 2974 2974 2974 2974 2973 2972 2972 2971
2957 2961 2966 2970 2975 2979 2983 2987 2990 2993 2995 2993 2995 2992 2992 2991 2991 2991 2993 2994 2995 2995 2994 2994 2993 2992 2991 2989 2987 2985 2983 2981 2979 2976 2974 2974 2973 2972 2973 2973 2972 2972 2971 2971
2952 2956 2961 2966 2971 2975 2980 2984 2986 2989 2994 2991 2992 2990 2989 2987 2987 2987 2989 2990 2991 2991 2992 2992 2991 2991 2989 2987 2984 2982 2982 2980 2980 2977 2975 2973 2972 2971 2971 2971 2971 2970 2970 2969
2948 2953 2957 2962 2967 2972 2978 2980 2983 2986 2989 2989 2989 2988 2985 2985 2985 2985 2986 2987 2987 2988 2989 2988 2987 2988 2988 2985 2983 2982 2981 2979 2977 2976 2973 2971 2971 2970 2970 2970 2969 2968 2968 2968
2944 2948 2954 2959 2964 2967 2973 2978 2980 2983 2985 2987 2987 2985 2981 2981 2981 2982 2982 2982 2983 2986 2985 2984 2985 2986 2985 2983 2982 2980 2979 2977 2975 2974 2973 2972 2970 2970 2969 2969 2968 2967 2967 2966
2941 2945 2951 2956 2960 2964 2968 2974 2977 2980 2981 2983 2984 2982 2980 2979 2978 2979 2980 2980 2981 2981 2982 2982 2982 2983 2982 2981 2978 2978 2976 2975 2973 2972 2971 2970 2969 2968 2968 2967 2967 2965 2965 2964
2937 2943 2947 2952 2955 2959 2967 2972 2975 2977 2981 2979 2979 2979 2979 2977 2978 2978 2978 2978 2978 2979 2977 2978 2980 2978 2977 2975 2975 2975 2975 2974 2973 2971 2969 2968 2967 2965 2965 2966 2965 2964 2963 2962
2934 2941 2946 2949 2952 2961 2966 2970 2971 2973 2973 2973 2973 2976 2977 2978 2976 2976 2977 2976 2976 2974 2974 2975 2973 2973 2972 2972 2971 2971 2970 2970 2969 2968 2968 2966 2966 2965 2964 2963 2961 2960 2959 2958
2932 2938 2943 2950 2954 2959 2963 2964 2966 2967 2968 2967 2968 2971 2973 2973 2974 2974 2975 2973 2973 2971 2970 2971 2969 2967 2966 2967 2967 2966 2965 2964 2964 2963 2963 2963 2962 2961 2960 2959 2958 2956 2955 2954
2931 2938 2943 2948 2951 2955 2957 2958 2961 2961 2963 2962 2964 2965 2968 2970 2971 2973 2973 2971 2970 2967 2966 2966 2965 2961 2962 2962 2962 2961 2960 2959 2958 2958 2957 2957 2957 2956 2955 2954 2953 2952 2951 2950
2932 2934 2939 2941 2944 2947 2948 2948 2951 2952 2955 2957 2960 2962 2964 2966 2969 2970 2971 2968 2965 2964 2963 2962 2958 2958 2958 2958 2957 2957 2957 2956 2955 2954 2953 2953 2952 2951 2950 2949 2948 2947 2946 2946
2928 2931 2932 2936 2937 2938 2940 2944 2946 2949 2953 2956 2958 2960 2962 2963 2965 2967 2966 2964 2962 2960 2960 2957 2956 2956 2955 2955 2954 2954 2953 2952 2951 2950 2950 2949 2948 2947 2945 2944 2943 2942 2941 2940
2926 2928 2928 2930 2931 2934 2938 2942 2943 2946 2950 2954 2956 2958 2961 2961 2963 2962 2962 2960 2957 2956 2954 2954 2954 2953 2952 2952 2951 2951 2950 2949 2947 2946 2946 2944 2944 2943 2941 2940 2939 2938 2937 2936
2925 2925 2924 2926 2930 2933 2936 2938 2941 2943 2947 2950 2954 2956 2958 2959 2958 2958 2957 2956 2955 2953 2953 2953 2952 2951 2950 2949 2949 2948 2947 2946 2945 2944 2942 2941 2940 2940 2938 2938 2937 2936 2935 2933
2921 2920 2922 2925 2929 2931 2934 2936 2938 2942 2946 2949 2952 2953 2954 2955 2955 2954 2953 2953 2953 2952 2951 2951 2950 2949 2949 2948 2947 2946 2945 2944 2943 2942 2941 2939 2938 2937 2936 2935 2934 2934 2933 2932